This demonstration page uses our WeatherBlox Daily Observations layout. Learn more.

Left ArrowRight Arrow

39.51506, -84.39828

Hourly Observations for February 20, 2017

Temp ( °F °C ) Dew Point ( °F °C ) Humidity (%) Winds ( mph kmh ) Pressure ( in mb ) Visibility ( mi km ) Precip ( " mm )
12:53 am 00:53 Clear with Mist and Fog 43 6.1 42 5.6 97 97 S 5 7 30.18 1022 2 2 0.00 0.00
1:06 am 01:06 Mostly Cloudy with Fog 43 6.1 42 5.6 97 97 S 3 6 30.18 1022 1 1 0.00 0.00
1:53 am 01:53 Mostly Cloudy with Fog 44 6.7 42 5.6 93 93 Calm 30.18 1022 1 1 0.00 0.00
2:53 am 02:53 Mostly Cloudy with Fog 36 2.2 36 2.2 100 100 Calm 30.18 1022 0 0 0.00 0.00
3:53 am 03:53 Mostly Cloudy with Fog 34 1.1 34 1.1 100 100 ENE 5 7 30.18 1022 0 0 0.00 0.00
4:03 am 04:03 Mostly Cloudy with Fog 34 1.1 34 1.1 100 100 ENE 5 7 30.21 1023 0 0 0.00 0.00
4:53 am 04:53 Mostly Cloudy with Fog 34 1.1 34 1.1 100 100 ENE 6 9 30.19 1022 5 8 0.00 0.00
5:53 am 05:53 Mostly Cloudy with Fog 36 2.2 36 2.2 100 100 Calm 30.22 1023 5 8 0.00 0.00
6:53 am 06:53 Mostly Cloudy with Fog 37 2.8 37 2.8 100 100 S 5 7 30.23 1024 5 8 0.00 0.00
7:53 am 07:53 Mostly Cloudy with Fog 39 3.9 38 3.3 96 96 SSW 5 7 30.25 1024 5 8 0.00 0.00
8:53 am 08:53 Mostly Cloudy with Fog 42 5.6 42 5.6 100 100 Calm 30.26 1025 5 8 0.00 0.00
9:53 am 09:53 Mostly Cloudy with Fog 46 7.8 46 7.8 100 100 ESE 5 7 30.24 1024 0 0 0.00 0.00
10:22 am 10:22 Cloudy with Mist and Fog 48 8.9 47 8.3 96 96 VRB 5 7 30.24 1024 1 2 0.00 0.00
10:34 am 10:34 Cloudy with Mist and Fog 49 9.4 48 8.9 97 97 ESE 5 7 30.24 1024 3 4 0.00 0.00
10:43 am 10:43 Mostly Cloudy with Mist and Fog 49 9.4 49 9.4 100 100 ESE 7 11 30.24 1024 4 6 0.00 0.00
10:53 am 10:53 Partly Cloudy with Mist and Fog 49 9.4 48 8.9 97 97 E 5 7 30.24 1024 5 8 0.00 0.00
11:53 am 11:53 Sunny 55 12.8 48 8.9 77 77 E 7 11 30.24 1024 8 13 0.00 0.00
12:53 pm 12:53 Sunny 59 15 49 9.4 69 69 ESE 7 11 30.20 1023 10 16 0.00 0.00
1:53 pm 13:53 Sunny 63 17.2 45 7.2 52 52 SE 8 13 30.16 1022 10 16 0.00 0.00
2:53 pm 14:53 Sunny 65 18.3 41 5 42 42 SSE 12 19 30.14 1021 10 16 0.00 0.00
3:53 pm 15:53 Sunny 66 18.9 41 5 40 40 ESE 9 15 30.14 1021 10 16 0.00 0.00
4:53 pm 16:53 Sunny 64 17.8 38 3.3 38 38 ESE 10 17 30.12 1020 10 16 0.00 0.00
5:53 pm 17:53 Sunny 60 15.6 38 3.3 44 44 SE 6 9 30.13 1020 10 16 0.00 0.00
6:53 pm 18:53 Clear 57 13.9 40 4.4 53 53 E 6 9 30.12 1020 10 16 0.00 0.00
7:53 pm 19:53 Clear 56 13.3 39 3.9 53 53 ESE 7 11 30.11 1020 10 16 0.00 0.00
8:53 pm 20:53 Clear 56 13.3 38 3.3 51 51 ESE 10 17 30.11 1020 10 16 0.00 0.00
9:53 pm 21:53 Clear 55 12.8 39 3.9 55 55 ESE 10 17 30.09 1019 10 16 0.00 0.00
10:53 pm 22:53 Clear 55 12.8 38 3.3 53 53 SE 8 13 30.08 1019 10 16 0.00 0.00
11:53 pm 23:53 Clear 55 12.8 40 4.4 57 57 SE 8 13 30.05 1018 10 16 0.00 0.00

Powered by AerisWeather